Home > Weather > Canada > Rankin Inlet > Past weeks

Flag for Canada Weather past 2 weeks in Rankin Inlet, Nunavut, Canada

-24 °F

Snow flurries. Passing clouds.

Feels Like: -52 °F
Forecast: -34 / -16 °F
Wind: 17 mph from North

Location: Rankin Inlet

Current Time: Dec 1, 2015 at 11:43:37 PM

Latest Report: Dec 1, 2015 at 11:00 PM

Visibility: 15 mi

Pressure: 30.07 "Hg

Humidity: 68%

Dew point: -31 °F

Location of Rankin InletLocation

Historic Weather in Rankin Inlet — Graph


Rankin Inlet temperature yesterday

Maximum temperature yesterday: 3 °F (at 4:00 AM)
Minimum temperature yesterday: -2 °F (at 5:00 PM)
Average temperature yesterday: 1 °F

Past Weeks' High & Low Weather Summary

High30 °F (Nov 17, 4:00 AM)100% (Nov 16, 9:00 PM)30.33 "Hg (Nov 16, 9:00 PM)
Low-29 °F (Nov 26, 8:00 PM)67% (Nov 26, 6:00 AM)29.18 "Hg (Nov 18, 5:00 AM)
Average-7 °F77%29.92 "Hg
* Reported Nov 16 9:00 PM — Dec 1 9:00 PM, Rankin Inlet, Weather by CustomWeather, © 2015

Note: Actual official high and low records may vary slightly from our data, if they occured in-between our weather recording intervals... More about our weather records


Rankin Inlet weather history for previous 24 hours

Time TempWeatherWind HumidityBarometerVisibility
9:00 PM
Tue, Dec 1
-24 °FSnow flurries. Passing clouds.15 mph75%30.07 "Hg15 mi
8:00 PM-22 °FSnow flurries. Passing clouds.17 mph68%30.06 "Hg15 mi
7:00 PM-22 °FSnow flurries. Passing clouds.10 mph68%30.07 "Hg15 mi
6:00 PM-20 °FSnow flurries. Passing clouds.12 mph68%30.05 "Hg15 mi
5:00 PM-20 °FSnow flurries. Passing clouds.12 mph68%30.05 "Hg15 mi
4:00 PM-18 °FSnow flurries. Partly cloudy.9 mph75%30.03 "Hg15 mi
3:00 PM-18 °FSnow flurries. Passing clouds.14 mph69%30.01 "Hg15 mi
2:00 PM-18 °FSnow flurries. Partly sunny.15 mph75%29.99 "Hg15 mi
1:00 PM-18 °FSnow flurries. Partly sunny.16 mph69%29.98 "Hg15 mi
12:00 PM-20 °FSnow flurries. Scattered clouds.14 mph68%29.96 "Hg15 mi
11:00 AM-20 °FSnow flurries. Scattered clouds.13 mph68%29.95 "Hg15 mi
10:00 AM-20 °FSnow flurries. Scattered clouds.16 mph68%29.92 "Hg15 mi
9:00 AM-20 °FSnow flurries. Passing clouds.14 mph68%29.90 "Hg15 mi
8:00 AM-20 °FSnow flurries. Passing clouds.14 mph75%29.88 "Hg15 mi
7:00 AM-18 °FSnow flurries. Passing clouds.14 mph75%29.87 "Hg15 mi
6:00 AM-17 °FSnow flurries. Clear.6 mph76%29.85 "Hg15 mi
5:00 AM-15 °FSnow flurries. Clear.10 mph76%29.83 "Hg15 mi
4:00 AM-13 °FSnow flurries. Clear.12 mph76%29.80 "Hg15 mi
3:00 AM-11 °FSnow flurries. Passing clouds.13 mph76%29.78 "Hg15 mi
2:00 AM-6 °FSnow flurries. Passing clouds.15 mph84%29.75 "Hg15 mi
1:00 AM-2 °FLight snow. Low clouds.13 mph77%29.72 "Hg15 mi
12:00 AM0 °FLight snow. Mostly cloudy.12 mph78%29.71 "Hg15 mi
11:00 PM
Mon, Nov 30
0 °FLight snow. Mostly cloudy.12 mph84%29.71 "Hg15 mi
Weather by CustomWeather, © 2015

See weather overviewHow to use our weather pages